[[{"header":{"parameterUnit":"m.s-1","parameterCategory":1,"la1":30.2991,"la2":30.254,"lo1":-89.0895,"lo2":-89.0444,"dy":0.0017,"dx":0.0017,"nx":28,"ny":28,"refTime":"2025-03-03T09:00:00:Z","depth":0,"parameterNumber":2,"parameterNumberName":"U-component_of_WINDS"},"data":[0,0,0,0,0,0,0,0,0,0,0,0,0,0,0,0,0,0,0,0,0,0,0,0,0,0,0,0,0,0,0,0,0,0,0,0,0,0,0,0,0,0,0,0,0,0,0,0,0,0,0,0,0,0,0,0,0,0,-6.2278,-6.2279,0,-6.237,-6.2371,-6.2372,-6.2328,-6.2326,-6.2323,-6.2321,-6.2414,-6.2419,-6.2423,0,0,0,0,0,0,0,0,0,0,0,0,0,-6.2064,-6.2068,-6.2278,-6.2279,-6.228,-6.237,-6.2371,-6.2372,-6.2328,-6.2326,-6.2323,-6.232,-6.2413,-6.2418,-6.2424,0,0,0,0,0,0,0,0,0,0,0,0,0,-6.2157,-6.2069,-6.2278,-6.2269,-6.2269,-6.237,-6.2371,-6.2373,-6.2329,-6.2325,-6.2322,-6.2319,-6.2411,-6.2418,-6.2425,-6.2539,0,0,-6.2446,-6.2449,0,0,0,0,0,0,0,0,-6.2151,-6.2164,-6.2269,-6.227,-6.227,-6.2334,-6.233,-6.2428,-6.233,-6.2306,-6.2321,-6.2317,-6.239,-6.2399,-6.2424,-6.2543,-6.2547,-6.2447,-6.2451,-6.2454,-6.2456,0,0,0,0,0,0,0,-6.2145,-6.216,-6.2314,-6.2271,-6.2271,-6.2261,-6.227,-6.2348,-6.2367,-6.2308,-6.2305,-6.2317,-6.239,-6.2417,-6.2426,-6.2548,-6.2446,-6.2453,-6.2457,-6.246,-6.2766,-6.277,0,0,0,0,0,0,-6.2139,-6.2155,-6.2311,-6.2317,-6.2201,-6.2267,-6.2278,-6.2317,-6.2366,-6.237,-6.232,-6.2314,-6.2407,-6.2417,-6.2429,-6.2564,-6.2454,-6.246,-6.2464,-6.2763,-6.2767,-6.2772,0,0,0,0,0,0,-6.2134,-6.2153,-6.2307,-6.2235,-6.2254,-6.2275,-6.2319,-6.2321,-6.2348,-6.2375,-6.2378,-6.2344,-6.2405,-6.2419,-6.2512,-6.2567,-6.2464,-6.247,-6.2758,-6.2764,-6.2769,-6.2837,0,0,0,0,0,0,-6.2129,-6.2152,-6.2195,-6.2237,-6.2258,-6.2389,-6.2323,-6.2325,-6.236,-6.2354,-6.2398,-6.2402,-6.2403,-6.2502,-6.2519,-6.2575,-6.2475,-6.2753,-6.2761,-6.2768,-6.283,-6.2845,-6.2857,0,0,0,0,0,-6.2121,-6.221,-6.2197,-6.2216,-6.2312,-6.2392,-6.2404,-6.2403,-6.2365,-6.2408,-6.2426,-6.2401,-6.256,-6.2511,-6.253,-6.2589,-6.2749,-6.2758,-6.2767,-6.2824,-6.2842,-6.2857,0,0,0,0,0,0,-6.2172,-6.2215,-6.2201,-6.2306,-6.2346,-6.2384,-6.2438,-6.2423,-6.2473,-6.2465,-6.2463,-6.2473,-6.2569,-6.2589,-6.2535,-6.2703,-6.2648,-6.2661,-6.2685,-6.2702,-6.2716,-6.2707,-6.2481,0,0,0,0,0,-6.2196,-6.2257,-6.2292,-6.2381,-6.2402,-6.2417,-6.2452,-6.2449,-6.2489,-6.2505,-6.253,-6.257,-6.2629,-6.2668,-6.2723,-6.2835,-6.2843,-6.2885,-6.2899,-6.291,-6.2919,-6.298,-6.2998,-6.2801,-6.2801,-6.28,0,0,-6.2245,-6.2276,-6.2314,-6.2392,-6.2422,-6.2485,-6.2431,-6.25,-6.2547,-6.2516,-6.2604,-6.2625,-6.267,-6.2772,-6.2818,-6.2792,-6.2977,-6.2921,-6.293,-6.2933,-6.2991,-6.3009,-6.3026,-6.2807,-6.2806,-6.2805,0,0,-6.2366,-6.2396,-6.2474,-6.2506,-6.2553,-6.2564,-6.2583,-6.2625,-6.2637,-6.2727,-6.2705,-6.2762,-6.2863,-6.2896,-6.2926,-6.3065,-6.3043,-6.3083,-6.3152,-6.3211,-6.3226,-6.324,-6.3287,-6.3304,-6.3094,-6.3094,-6.3094,0,-6.242,-6.2514,-6.2515,-6.2587,-6.2621,-6.2599,-6.2677,-6.2708,-6.2771,-6.2796,-6.2766,-6.2894,-6.2923,-6.3033,-6.3067,-6.3093,-6.3114,-6.3075,-6.3224,-6.3238,-6.3251,-6.3296,-6.3314,-6.3099,-6.3098,-6.3098,-6.3097,0,-6.2578,-6.2644,-6.2701,-6.2763,-6.2806,-6.288,-6.2893,-6.2935,-6.293,-6.2944,-6.3036,-6.3071,-6.3133,-6.3161,-6.3156,-6.327,-6.3252,-6.3224,-6.3168,-6.3274,-6.3316,-6.3333,-6.3105,-6.3103,-6.3102,-6.3101,0,0,-6.2727,-6.2793,-6.2813,-6.2842,-6.2895,-6.2946,-6.3021,-6.3083,-6.3118,-6.3165,-6.3226,-6.3315,-6.329,-6.3324,-6.3324,-6.3376,-6.3481,-6.3341,-6.3342,-6.3363,-6.3609,-6.3626,-6.3646,-6.347,-6.3473,-6.3476,-6.3604,0,-6.2849,-6.2979,-6.2985,-6.3103,-6.3164,-6.3146,-6.3211,-6.3251,-6.3268,-6.3322,-6.3341,-6.3402,-6.3366,-6.3386,-6.3438,-6.3458,-6.353,-6.3449,-6.3525,-6.3528,-6.351,-6.3669,-6.3687,-6.3806,-6.3621,-6.3623,-6.3625,0,-6.3007,-6.3059,-6.3184,-6.323,-6.3255,-6.3314,-6.3372,-6.3425,-6.3471,-6.3479,-6.352,-6.3513,-6.3589,-6.3536,-6.3641,-6.3586,-6.3619,-6.3634,-6.3639,-6.3642,-6.3579,-6.3673,-6.3844,-6.386,-6.3652,-6.365,-6.3648,0,-6.31,-6.3202,-6.329,-6.3315,-6.3371,-6.3413,-6.3438,-6.3481,-6.3518,-6.357,-6.3594,-6.3655,-6.3687,-6.3734,-6.3743,-6.3704,-6.3849,-6.3796,-6.3856,-6.3856,-6.3883,-6.388,-6.4058,-6.3912,-6.3911,-6.3911,-6.3911,0,-6.3233,-6.3309,-6.3332,-6.3386,-6.3471,-6.3479,-6.3563,-6.3586,-6.3625,-6.3682,-6.3672,-6.3726,-6.3738,-6.3795,-6.3804,-6.3889,-6.3904,-6.3912,-6.3913,-6.3911,-6.3909,-6.3928,-6.3919,-6.3916,-6.3915,-6.3914,-6.3913,0,-6.3349,-6.3368,-6.3462,-6.3509,-6.3523,-6.3583,-6.3623,-6.3675,-6.3693,-6.3766,-6.3784,-6.3811,-6.3877,-6.3893,-6.3973,-6.3979,-6.4079,-6.4074,-6.4063,-6.4061,-6.412,-6.4113,-6.4312,-6.4338,-6.4178,-6.418,-6.4181,0,-6.343,-6.3488,-6.3543,-6.3581,-6.3609,-6.3671,-6.371,-6.3721,-6.3762,-6.382,-6.3865,-6.3931,-6.3984,-6.4092,-6.4119,-6.418,-6.4174,-6.424,-6.4182,-6.4179,-6.4171,-6.4165,-6.4171,-6.4249,-6.425,-6.4252,-6.4253,0,-6.3571,-6.3578,-6.3635,-6.3697,-6.3744,-6.3792,-6.3838,-6.3871,-6.3889,-6.3936,-6.4004,-6.4046,-6.4129,-6.4194,-6.4256,-6.4283,-6.4271,-6.4272,-6.4289,-6.4285,-6.4275,-6.4278,-6.4088,-6.4266,-6.4265,-6.4264,-6.4263,-6.4262,-6.367,-6.3721,-6.3767,-6.3832,-6.3869,-6.3913,-6.3964,-6.3989,-6.4047,-6.4114,-6.4119,-6.4194,-6.424,-6.4323,-6.4354,-6.4412,-6.4392,-6.4417,-6.4422,-6.4427,-6.4431,-6.427,-6.4424,-6.4424,-6.4424,-6.4423,-6.4423,0,-6.3807,-6.3838,-6.3897,-6.3963,-6.4014,-6.4002,-6.4053,-6.4096,-6.4162,-6.4208,-6.4261,-6.4341,-6.4405,-6.4439,-6.4503,-6.4544,-6.454,-6.456,-6.4554,-6.4561,-6.4447,-6.4424,-6.4562,-6.4562,-6.4562,-6.4562,-6.4562,-6.4562,-6.3885,-6.397,-6.3984,-6.4089,-6.4119,-6.4192,-6.4222,-6.4264,-6.43,-6.4389,-6.4443,-6.4466,-6.4507,-6.4574,-6.4633,-6.4641,-6.4664,-6.4686,-6.4691,-6.4583,-6.4569,-6.4555,-6.4534,-6.4692,-6.4692,-6.48,-6.4801,-6.4801]},{"header":{"parameterUnit":"m.s-1","parameterCategory":1,"la1":30.2991,"la2":30.254,"lo1":-89.0895,"lo2":-89.0444,"dy":0.0017,"dx":0.0017,"nx":28,"ny":28,"refTime":"2025-03-03T09:00:00:Z","depth":0,"parameterNumber":3,"parameterNumberName":"V-component_of_WINDS"},"data":[0,0,0,0,0,0,0,0,0,0,0,0,0,0,0,0,0,0,0,0,0,0,0,0,0,0,0,0,0,0,0,0,0,0,0,0,0,0,0,0,0,0,0,0,0,0,0,0,0,0,0,0,0,0,0,0,0,0,2.0588,2.0589,0,2.0669,2.067,2.0671,2.0732,2.0733,2.0733,2.0734,2.0812,2.0814,2.0815,0,0,0,0,0,0,0,0,0,0,0,0,0,2.0484,2.0485,2.0588,2.0589,2.059,2.0669,2.067,2.0671,2.0732,2.0733,2.0733,2.0734,2.0812,2.0813,2.0815,0,0,0,0,0,0,0,0,0,0,0,0,0,2.0543,2.0486,2.0588,2.063,2.0635,2.0669,2.067,2.0672,2.0732,2.0733,2.0733,2.0734,2.0811,2.0813,2.0816,2.0813,0,0,2.0823,2.0824,0,0,0,0,0,0,0,0,2.054,2.0547,2.0623,2.0627,2.0632,2.0692,2.0662,2.0719,2.0732,2.0695,2.0734,2.0735,2.0771,2.0777,2.079,2.0817,2.082,2.0823,2.0824,2.0825,2.0826,0,0,0,0,0,0,0,2.0535,2.0544,2.062,2.0624,2.063,2.0644,2.0654,2.0673,2.0727,2.0698,2.0703,2.0712,2.0774,2.0788,2.0792,2.0822,2.0823,2.0825,2.0827,2.0827,2.0854,2.0853,0,0,0,0,0,0,2.0525,2.054,2.0618,2.0623,2.0587,2.0645,2.0656,2.0672,2.0727,2.0736,2.0711,2.0714,2.0783,2.0789,2.0795,2.0799,2.0825,2.0828,2.0829,2.0855,2.0854,2.0853,0,0,0,0,0,0,2.0523,2.0532,2.0614,2.0583,2.0594,2.0646,2.0663,2.0673,2.0687,2.0737,2.0746,2.0715,2.0784,2.0792,2.0809,2.0802,2.0829,2.0831,2.0855,2.0854,2.0853,2.0803,0,0,0,0,0,0,2.052,2.053,2.053,2.0582,2.0596,2.0628,2.0663,2.0674,2.0691,2.0696,2.0743,2.0752,2.0785,2.0806,2.0812,2.0806,2.0833,2.0856,2.0855,2.0854,2.0806,2.0801,2.0796,0,0,0,0,0,2.0516,2.0511,2.053,2.0539,2.0597,2.0627,2.0635,2.0674,2.069,2.0691,2.0723,2.075,2.0802,2.0807,2.0814,2.0809,2.0857,2.0855,2.0854,2.0808,2.0802,2.0796,0,0,0,0,0,0,2.0455,2.0519,2.054,2.0553,2.0584,2.0637,2.0639,2.0666,2.0692,2.0696,2.0743,2.0753,2.0766,2.0789,2.0794,2.0811,2.0833,2.0833,2.0796,2.079,2.0785,2.078,2.0835,0,0,0,0,0,2.0443,2.0463,2.0518,2.0523,2.0539,2.0586,2.06,2.0629,2.0663,2.0676,2.0709,2.074,2.0764,2.0778,2.0802,2.081,2.0822,2.081,2.0805,2.0801,2.08,2.0808,2.0804,2.0848,2.0848,2.0848,0,0,2.0418,2.0456,2.0465,2.0512,2.054,2.056,2.0597,2.0615,2.063,2.0678,2.0698,2.0724,2.0761,2.0775,2.0782,2.0794,2.0791,2.0799,2.0795,2.0797,2.0806,2.0802,2.0798,2.0847,2.0847,2.0847,0,0,2.0384,2.0414,2.0424,2.0452,2.0495,2.0527,2.0529,2.0579,2.0599,2.062,2.0657,2.0675,2.0713,2.074,2.0758,2.0737,2.0764,2.0743,2.0718,2.0726,2.0722,2.0719,2.0713,2.0711,2.0743,2.0742,2.0742,0,2.0348,2.038,2.0425,2.0443,2.0463,2.051,2.052,2.0544,2.0592,2.0604,2.0618,2.067,2.0698,2.0719,2.0715,2.0727,2.0732,2.0738,2.0719,2.0717,2.0715,2.071,2.0707,2.074,2.074,2.074,2.0741,0,2.0335,2.0357,2.0359,2.0407,2.0427,2.0441,2.0487,2.0502,2.0529,2.056,2.0581,2.0618,2.0651,2.0658,2.0683,2.0684,2.069,2.0711,2.0734,2.0707,2.0704,2.0702,2.0736,2.0737,2.0738,2.0738,0,0,2.0263,2.0338,2.0338,2.0362,2.0413,2.0431,2.0447,2.0482,2.0495,2.0526,2.0542,2.0575,2.0595,2.0616,2.0645,2.0651,2.0635,2.0671,2.0673,2.0664,2.0639,2.0624,2.0621,2.0653,2.0652,2.0652,2.0637,0,2.0239,2.0272,2.0314,2.0333,2.0355,2.0401,2.0415,2.0448,2.0478,2.05,2.0532,2.0556,2.058,2.0593,2.0601,2.0635,2.063,2.0636,2.0667,2.0668,2.0658,2.0619,2.0603,2.0586,2.0635,2.0635,2.0635,0,2.0214,2.0246,2.0268,2.0321,2.0332,2.0344,2.0381,2.0401,2.044,2.0461,2.0486,2.0518,2.0538,2.0558,2.0586,2.0589,2.0604,2.0623,2.0623,2.0628,2.065,2.0624,2.0582,2.058,2.0632,2.0633,2.0633,0,2.0162,2.021,2.0231,2.0249,2.031,2.0319,2.0344,2.0384,2.0403,2.0435,2.0448,2.0481,2.0499,2.0523,2.0563,2.0574,2.0587,2.061,2.0606,2.0605,2.0607,2.0606,2.0567,2.0614,2.0614,2.0614,2.0614,0,2.013,2.0142,2.0209,2.0221,2.0237,2.0285,2.0298,2.0328,2.0363,2.0382,2.0423,2.0439,2.0491,2.0514,2.0545,2.0564,2.0571,2.0589,2.0597,2.0586,2.0584,2.0597,2.06,2.0614,2.0614,2.0614,2.0614,0,2.0075,2.012,2.0145,2.0203,2.0217,2.0226,2.0275,2.0289,2.0322,2.0345,2.0353,2.0404,2.0433,2.0476,2.0517,2.0538,2.0553,2.0566,2.0541,2.0546,2.0539,2.054,2.0508,2.0507,2.0553,2.0553,2.0552,0,2.0053,2.0064,2.0123,2.014,2.0165,2.0191,2.0212,2.0259,2.0279,2.0326,2.0334,2.0367,2.0396,2.044,2.048,2.0512,2.0527,2.0514,2.0532,2.0521,2.0529,2.0528,2.053,2.0509,2.0509,2.0508,2.0508,0,2.0009,2.0031,2.0061,2.0098,2.0123,2.0154,2.0187,2.0198,2.0253,2.0273,2.0305,2.0328,2.0371,2.0404,2.0442,2.0467,2.0497,2.0502,2.0503,2.0492,2.0477,2.0487,2.053,2.0502,2.0503,2.0503,2.0503,2.0504,1.997,1.9983,2.0028,2.006,2.0091,2.0122,2.0139,2.0175,2.0202,2.0243,2.0269,2.03,2.034,2.0395,2.042,2.0444,2.0456,2.0457,2.0457,2.0457,2.0454,2.0473,2.0451,2.0451,2.0451,2.0451,2.0451,0,1.993,1.9962,1.9991,2.0038,2.0063,2.0091,2.013,2.0149,2.0176,2.0212,2.0241,2.0278,2.031,2.0353,2.0389,2.04,2.0414,2.0408,2.0408,2.0413,2.044,2.0437,2.0395,2.0395,2.0395,2.0395,2.0395,2.0396,1.9913,1.9937,1.9965,2.0005,2.0037,2.0069,2.0089,2.0118,2.0147,2.0188,2.0215,2.0244,2.0284,2.0323,2.0353,2.0365,2.0377,2.0366,2.0382,2.0406,2.0411,2.0416,2.0413,2.0368,2.0368,2.0354,2.0354,2.0354]}]]